Flag for Germany Weather past 2 weeks in Tuttlingen, Baden-Württemberg, Germany

Now
59 °F

Overcast.


Feels Like: 59 °F
Forecast: 40 / 62 °F
Wind: 2 mph from Southeast

Location: Konstanz

Current Time: May 22, 2015 at 3:07:13 PM

Latest Report: May 22, 2015 at 2:00 PM


Visibility: 16 mi

Pressure: 30.22 "Hg

Humidity: 59%

Dew point: 45 °F

Location of TuttlingenLocation

Historic Weather in Tuttlingen — Graph

°F

Tuttlingen temperature yesterday

Maximum temperature yesterday: 51 °F (at 12:00 PM)
Minimum temperature yesterday: 44 °F (at 4:00 AM)
Average temperature yesterday: 48 °F

Past Weeks' High & Low Weather Summary

 TemperatureHumidityPressure
High84 °F (May 12, 6:00 PM)97% (May 15, 2:00 PM)30.37 "Hg (May 15, 2:00 PM)
Low44 °F (May 21, 4:00 AM)26% (May 12, 7:00 PM)29.70 "Hg (May 18, 7:00 PM)
Average59 °F71%30.08 "Hg
* Reported May 7 2:00 PM — May 22 2:00 PM, Tuttlingen, Weather by CustomWeather, © 2015

Note: Actual official high and low records may vary slightly from our data, if they occured in-between our weather recording intervals... More about our weather records

Advertising

Tuttlingen weather history for previous 24 hours

 ConditionsComfort  
Time TempWeatherWind HumidityBarometerVisibility
2:00 PM
Fri, May 22
59 °FOvercast.2 mph59%30.22 "Hg16 mi
1:00 PM58 °FOvercast.2 mph61%30.24 "Hg22 mi
12:00 PM56 °FPartly sunny.2 mph62%30.26 "Hg22 mi
11:00 AM56 °FScattered clouds.2 mph59%30.27 "Hg22 mi
10:00 AM53 °FPartly sunny.2 mph62%30.28 "Hg22 mi
9:00 AM51 °FPartly sunny.2 mph62%30.29 "Hg22 mi
8:00 AM47 °FOvercast.2 mph76%30.31 "Hg19 mi
7:00 AM46 °FOvercast.1 mph80%30.31 "Hg10 mi
6:00 AM45 °FOvercast.2 mph85%30.31 "Hg9 mi
5:00 AM46 °FOvercast.2 mph92%30.31 "Hg6 mi
4:00 AM47 °FFog.1 mph93%30.32 "Hg4 mi
3:00 AM48 °FOvercast.1 mph94%30.32 "Hg5 mi
2:00 AM48 °FOvercast.2 mph92%30.32 "Hg7 mi
1:00 AM48 °FOvercast.1 mph91%30.33 "Hg10 mi
12:00 AM48 °FOvercast.2 mph90%30.33 "Hg10 mi
11:00 PM
Thu, May 21
49 °FOvercast.1 mph89%30.33 "Hg10 mi
10:00 PM49 °FOvercast.1 mph87%30.32 "Hg14 mi
9:00 PM50 °FOvercast.1 mph79%30.31 "Hg22 mi
8:00 PM50 °FPartly sunny.2 mph77%30.30 "Hg22 mi
7:00 PM51 °FOvercast.1 mph76%30.29 "Hg25 mi
6:00 PM50 °FPartly sunny.2 mph78%30.27 "Hg25 mi
5:00 PM51 °FOvercast.2 mph79%30.26 "Hg16 mi
4:00 PM51 °FOvercast.2 mph81%30.25 "Hg16 mi
3:00 PM50 °FOvercast.2 mph81%30.24 "Hg19 mi
Weather by CustomWeather, © 2015

See weather overviewHow to use our weather pages